Regional Weather Roundup
Issued by NWS

Home | Current Version | Previous Version | Text Only | Print | Product List | Glossary Off
Versions: 1 2 3 4 5 6 7 8 9 10 11 12 13 14 15 16 17 18 19 20 21 22 23 24 25 26 27 28 29 30 31 32 33 34 35 36 37 38 39 40 41 42 43 44 45 46 47 48 49 50

000
ASUS43 KMKX 160200
RWRWI

WISCONSIN REGIONAL WEATHER ROUNDUP
NATIONAL WEATHER SERVICE MILWAUKEE/SULLIVAN WI
900 PM CDT TUE APR 15 2014

NOTE: "FAIR" INDICATES FEW OR NO CLOUDS BELOW 12,000 FEET WITH NO
SIGNIFICANT WEATHER AND/OR OBSTRUCTIONS TO VISIBILITY.

WIZ001-002-006>008-014>016-023>028-160300-
NORTHWEST WISCONSIN

CITY           SKY/WX    TMP DP  RH WIND       PRES   REMARKS
SUPERIOR ARPT  PTCLDY    28   7  41 SW3       30.09R
ASHLAND        CLEAR     24   9  52 E3        30.11R
HAYWARD        PTCLDY    26   4  38 CALM      30.08R
SIREN          PTCLDY    28   9  43 CALM      30.08R
RICE LAKE      NOT AVBL
LADYSMITH      CLEAR     30   8  38 CALM      30.09R
EAU CLAIRE     NOT AVBL
MENOMONIE      PTCLDY    33   4  29 S3        30.08R
NEW RICHMOND   MOCLDY    32   7  35 S3        30.07R
OSCEOLA        PTCLDY    31  14  48 CALM      30.10R
$$

WIZ003>005-009-010-017-018-160300-
NORTH CENTRAL WISCONSIN

CITY           SKY/WX    TMP DP  RH WIND       PRES   REMARKS
WOODRUFF       CLEAR     22  -3  34 CALM      30.06R
RHINELANDER    CLEAR     20   3  48 CALM      30.07R
EAGLE RIVER    CLEAR     20   9  62 CALM      30.06R
LAND O LAKES   CLEAR     19   5  54 CALM      30.07R
PHILLIPS       CLEAR     26   3  36 CALM      30.06R
TOMAHAWK       CLEAR     24   8  50 CALM      30.07R
MEDFORD        CLEAR     28  13  53 W3        30.07R
MERRILL        CLEAR     26  12  54 CALM      30.09R
$$

WIZ029-030-035-036-043>047-160300-
CENTRAL WISCONSIN

CITY           SKY/WX    TMP DP  RH WIND       PRES   REMARKS
WAUSAU         CLEAR     27  12  53 SW5       30.10R WCI  22
MOSINEE        CLEAR     25  12  58 CALM      30.12R
MARSHFIELD     CLEAR     29  16  58 CALM      30.10R
STEVENS POINT  CLEAR     22  13  66 SE3       30.13R
WAUPACA        CLEAR     28  16  59 CALM      30.15R
WAUTOMA        NOT AVBL
WISC RAPIDS    CLEAR     27  17  66 S5        30.14R WCI  22
CAMP DOUGLAS   NOT AVBL
$$

WIZ011>013-019>022-031-037>040-048>050-160300-
NORTHEAST WISCONSIN

CITY           SKY/WX    TMP DP  RH WIND       PRES   REMARKS
ANTIGO         CLEAR     19  10  65 SW6       30.08R WCI  11
STURGEON BAY   CLEAR     28  14  54 SW6       30.15R WCI  22
GREEN BAY      CLEAR     30  17  58 SW3       30.16R
MANITOWOC      NOT AVBL
APPLETON       PTCLDY    27  14  59 CALM      30.15R
CLINTONVILLE   CLEAR     28  14  54 SW3       30.14R
OSHKOSH        CLEAR     29  17  61 CALM      30.16R
$$

WIZ032>034-041-042-053>061-160300-
SOUTHWEST WISCONSIN

CITY           SKY/WX    TMP DP  RH WIND       PRES   REMARKS
LA CROSSE      MOCLDY    33  14  45 S6        30.12R WCI  28
SPARTA         CLEAR     28  18  67 E3        30.13R
VIROQUA        FAIR      31  15  51 CALM      30.09R
BOSCOBEL       MOCLDY    31  16  54 SE3       30.14R
PRAIRIE DU CHI CLEAR     32  19  58 CALM      30.12R
PLATTEVILLE    FAIR      33  16  48 CALM      30.13R
$$

WIZ056-057-062-063-064-067-068-160300-
SOUTH CENTRAL WISCONSIN

CITY           SKY/WX    TMP DP  RH WIND       PRES   REMARKS
BARABOO/DELLS  CLEAR     28  21  75 CALM      30.13R
LONE ROCK      NOT AVBL
WATERTOWN      CLEAR     31  17  57 CALM      30.15R
MADISON        CLEAR     31  15  52 CALM      30.15R
MIDDLETON      FAIR      31  17  54 CALM      30.14R
MONROE         CLEAR     33  15  47 CALM      30.13R
JANESVILLE     CLEAR     36  12  38 CALM      30.14R
$$

WIZ051-052-058>065-066-070>072-160300-
SOUTHEAST WISCONSIN

CITY           SKY/WX    TMP DP  RH WIND       PRES   REMARKS
MILWAUKEE      MOCLDY    29  20  69 S7        30.19R WCI  22
WAUKESHA       CLEAR     28  14  54 CALM      30.17R
MILWAUKEE/TIMM CLEAR     30  18  59 SE5       30.18R WCI  25
RACINE         MOCLDY    30  21  69 S9        30.20R WCI  22
BURLINGTON     CLEAR     28  20  71 CALM      30.16R
KENOSHA        PTCLDY    30  20  66 SE8       30.18R WCI  22
FOND DU LAC    CLEAR     28  16  60 CALM      30.16R
SHEBOYGAN      PTCLDY    28  19  69 CALM      30.18R
WEST BEND      CLEAR     28  16  59 CALM      30.16R
JUNEAU         CLEAR     30  15  54 N3        30.16R
$$

LSZ147-162-160300-
LAKE SUPERIOR

STATION/POSITION TIME  TEMP    WIND        PRES    WAVE
                       AIR SEA DIR/SP/G            HT/PER
                 (UTC) (F)     (DEG/KT/KT) (MB)    (FT/S)
DEVILS ISLAND    0100   27     170/  4/  5 1019.9R
PORT WING        0140   29     180/  4/  5 1019.3R
SAXON HARBOR     0100             CALM     1019.0R
$$

LMZ867-665-643>646-160300-
LAKE MICHIGAN

STATION/POSITION TIME  TEMP    WIND        PRES    WAVE
                       AIR SEA DIR/SP/G            HT/PER
                 (UTC) (F)     (DEG/KT/KT) (MB)    (FT/S)
NORTHPORT PIER   0100   27      CALM  /  3 1020.3R
SISTER BAY       0123   24        CALM       N/A
KEWAUNEE LAKESHO 0100   30     250/  4/  6 1021.1R
SHEBOYGAN LAKESH 0100   33     270/  6/  7 1022.3R
PORT WASHINGTON  0140   32     170/ 13/ 15 1022.4R
MILWAUKEE LAKESH 0100   31     160/ 15/ 17   N/A
KENOSHA   LAKESH 0100   31     150/ 15/ 18   N/A
$$

TC  - TEMPERATURE IN CELSIUS
VSB - VISIBILITY IN STATUTE MILES
WCI - WIND CHILL INDEX
HX  - HEAT INDEX




USA.gov is the U.S. government's official web portal to all federal, state and local government web resources and services.